RH
30 30 39 39 44 43 40 38 37 36 34 34 36 35 34 29 23 18 18 24 30 50 46 43 52 44 41 54 59 60 86 78 73 67 64 65 66 68 71 73 74 70 60 54 52
22 24 32 41 43 39 37 35 34 33 32 33 34 33 30 22 16 15 21 30 29 28 46 52 58 56 85 97 99 98 86 76 74 74 80 85 89 84 81 74 74 74 72 66 61
43 34 35 46 41 39 36 32 32 30 30 29 28 25 21 17 15 24 29 21 22 32 54 58 66 90 97 86 74 93 97 93 89 88 90 94 92 93 98 98 90 78 79 75 73
50 50 49 46 43 40 35 31 30 29 28 26 24 21 17 14 50 25 21 25 31 44 48 53 73 95 70 63 83 95 89 96 89 94 78 60 87 95 96 83 51 64 79 85 80
34 30 33 37 37 37 32 30 30 30 27 23 20 16 14 14 16 23 28 28 29 26 26 37 41 67 58 77 88 77 97 68 47 56 86 97 96 94 62 38 66 64 71 89 84
20 19 22 23 23 26 28 30 32 29 25 20 15 14 14 20 26 22 23 22 21 23 23 26 30 36 40 59 62 53 46 35 37 78 74 75 84 68 82 77 91 96 81 95 75
20 19 18 18 23 28 34 34 33 28 23 20 18 16 17 25 21 18 18 18 17 19 22 24 27 33 29 31 30 31 50 81 60 60 64 76 72 72 68 87 77 75 93 99 78
19 18 18 18 28 32 33 35 33 27 23 23 21 19 22 21 17 15 13 16 17 19 20 22 27 28 28 30 40 86 85 53 46 56 64 68 83 74 71 76 85 83 80 90 99
20 18 18 17 18 19 25 32 31 27 25 24 25 21 26 19 17 14 17 15 16 17 21 25 26 31 41 45 68 72 50 50 48 54 60 66 70 64 60 55 60 75 75 84 84
23 20 18 17 17 19 24 31 28 28 27 29 27 28 24 18 17 16 17 16 17 21 21 26 26 53 86 70 43 53 55 54 54 51 50 59 56 44 37 39 50 58 67 74 84
27 24 20 18 18 19 24 34 35 32 30 32 27 24 21 20 18 20 18 16 17 33 64 54 52 48 50 58 59 56 54 52 42 46 46 38 32 32 36 48 58 64 71 83 79
27 28 23 19 19 18 24 36 39 35 30 34 30 24 23 21 17 21 19 21 24 54 42 58 40 52 32 55 58 46 40 38 40 36 32 26 28 26 39 58 64 76 93 83 92
28 28 24 21 20 15 17 23 39 36 36 36 31 26 26 23 20 23 22 22 26 54 51 47 41 46 33 50 46 39 33 36 38 38 29 21 21 23 28 44 66 76 76 96 91
30 27 24 21 18 12 15 17 35 35 35 35 32 29 30 25 28 22 26 26 45 50 49 43 45 36 51 49 45 40 38 45 40 37 29 24 26 23 24 30 55 71 79 76 82
26 23 21 14 9 12 14 20 33 35 90 31 32 34 29 27 26 35 28 30 32 55 51 39 48 53 51 48 52 43 47 46 43 38 31 27 23 25 23 27 43 61 68 54 57
22 20 11 7 9 14 20 33 33 36 87 39 37 30 30 39 31 34 33 33 38 42 56 42 50 47 53 47 48 48 48 40 36 33 46 36 30 27 19 43 45 51 58 55 18
19 13 6 7 13 20 34 39 37 47 38 46 38 33 32 44 46 35 47 57 55 54 48 48 46 51 33 43 46 55 46 54 47 47 59 27 29 25 20 39 37 51 47 48 10
15 6 5 7 18 35 51 46 35 38 44 45 40 36 49 48 50 40 45 56 59 56 60 56 38 47 58 52 53 50 51 53 56 50 33 28 27 22 32 21 44 45 32 45 15
8 5 6 15 30 54 52 57 50 52 61 54 46 64 61 44 44 48 63 58 60 49 68 69 58 54 55 60 64 55 56 71 62 46 42 34 27 24 21 30 24 38 33 48 56
6 6 9 24 44 60 62 69 69 74 69 57 57 54 66 62 68 68 63 60 64 53 60 75 74 61 64 58 59 67 57 60 79 83 54 28 23 18 17 19 28 38 41 50 67
6 8 23 40 59 68 73 80 80 80 76 65 58 73 72 88 79 75 54 64 66 82 71 76 93 63 71 65 58 67 82 80 82 73 61 50 26 19 28 30 40 44 52 54 86
16 24 36 62 72 77 85 85 79 84 89 75 63 47 78 87 97 96 82 78 62 79 94 92 92 90 67 62 64 69 72 73 76 58 86 65 47 37 34 35 36 51 62 66 88
54 52 60 80 87 85 92 89 82 92 94 89 76 56 58 79 86 99 98 62 65 76 93 92 94 82 54 67 75 63 65 64 75 85 72 61 48 40 38 41 37 62 78 87 87
81 79 86 91 92 99 98 98 98 94 94 90 79 66 62 70 89 80 100 98 80 84 89 99 94 91 77 60 66 94 84 77 90 86 58 54 52 46 36 37 45 68 76 77 56
96 99 99 97 96 100 100 99 100 100 93 91 84 73 65 96 97 90 91 91 93 96 98 98 96 92 91 96 96 85 87 96 97 92 96 69 67 64 63 54 54 73 76 51 46
100 100 98 98 75 100 99 98 96 100 97 97 89 74 98 100 97 88 94 96 96 90 94 94 96 92 84 74 69 81 72 74 98 90 89 91 86 34 66 60 68 78 72 49 48
99 100 99 98 94 97 99 99 98 97 93 94 97 98 85 90 99 99 96 87 94 99 100 99 99 99 86 66 71 72 52 55 54 58 69 85 66 68 63 60 73 90 76 55 50
Wind_Speed
21 21 22 25 24 24 25 25 25 25 26 26 25 25 24 22 22 20 21 22 20 15 13 12 12 18 18 15 15 18 16 21 21 24 30 26 31 29 32 38 36 32 35 31 26
22 22 22 24 23 23 26 26 26 25 25 25 24 23 22 21 19 21 20 13 12 15 15 16 22 18 12 12 14 12 17 21 20 25 31 32 31 33 34 37 37 35 34 34 32
22 21 22 22 23 24 26 26 25 25 24 24 23 22 21 19 18 18 12 16 19 14 15 20 22 14 19 19 19 19 22 25 26 31 32 37 37 38 39 41 35 40 39 34 33
23 22 22 23 24 26 27 27 27 27 25 23 22 20 19 16 5 13 19 16 16 14 18 19 14 21 25 24 19 22 25 27 30 28 31 33 35 36 33 42 42 45 43 42 46
24 25 24 25 26 26 27 27 28 26 25 23 21 17 15 13 13 14 13 13 12 11 13 14 16 18 20 18 19 23 20 24 27 28 29 30 33 36 40 38 40 42 43 45 45
24 25 26 26 26 26 26 26 27 26 25 21 17 16 12 7 10 7 7 9 10 12 13 13 14 16 18 14 18 20 23 24 24 23 21 25 28 31 34 36 35 37 37 40 47
25 27 28 28 28 26 25 26 26 25 22 19 20 14 6 5 3 5 8 10 12 12 13 14 14 15 17 17 15 19 22 18 14 13 25 25 29 26 26 26 38 40 39 34 40
26 26 27 28 28 27 27 26 27 26 20 23 16 10 3 3 7 10 13 11 11 13 13 13 12 12 13 14 17 12 8 17 19 20 19 23 37 27 28 28 31 31 37 32 27
28 28 27 28 29 29 28 27 27 27 22 19 13 7 2 6 11 14 11 11 12 13 12 12 12 11 13 13 10 5 17 22 22 20 21 21 36 32 27 27 28 27 25 26 28
28 27 27 27 28 29 29 29 28 26 23 17 6 2 2 8 11 13 10 13 14 13 10 12 11 10 4 7 11 15 19 20 24 23 24 25 30 30 29 24 23 23 23 23 23
27 27 27 28 28 29 28 29 28 22 26 14 5 3 3 9 14 10 12 13 15 12 3 12 7 7 7 7 10 14 17 22 22 22 20 27 27 26 18 14 15 18 19 22 25
28 29 29 29 29 30 29 30 26 22 19 10 4 4 7 12 14 9 13 12 11 4 9 8 11 7 12 11 13 17 20 22 22 19 23 24 24 14 11 12 12 13 14 18 13
27 28 29 30 28 29 28 29 27 27 9 5 7 4 9 14 15 10 12 11 8 7 8 10 11 13 15 12 16 18 19 18 20 23 23 18 21 11 10 12 15 16 16 14 25
27 27 29 30 29 31 28 28 27 25 2 3 5 6 10 18 5 17 10 12 9 6 11 8 9 12 13 16 17 19 13 16 21 21 20 19 20 23 17 13 16 17 18 22 23
27 28 29 30 30 30 30 29 26 15 1 2 8 11 12 17 17 16 13 13 10 10 11 4 9 14 16 16 11 15 15 18 21 23 26 24 22 21 17 13 15 17 20 24 26
27 28 29 29 31 28 28 27 23 4 1 10 11 12 19 22 20 14 15 14 14 11 12 14 13 15 10 12 14 14 17 20 23 19 15 21 14 20 23 12 16 17 19 26 33
28 28 30 29 28 27 27 22 8 1 10 8 12 22 22 19 13 12 9 11 9 10 7 12 14 13 10 10 9 10 15 12 9 7 10 19 15 23 28 16 15 16 20 25 39
29 30 30 30 27 25 25 18 3 6 14 16 22 24 17 12 9 10 16 11 13 8 9 6 4 5 7 8 12 18 14 11 13 14 16 25 19 20 12 20 15 17 23 26 37
30 29 28 26 23 24 15 7 4 12 17 21 22 10 7 8 9 16 9 13 10 6 5 5 7 7 15 14 10 3 11 13 17 24 22 24 26 20 19 12 14 22 27 28 30
31 31 27 24 22 24 14 10 12 18 19 19 9 9 8 8 9 10 7 7 6 8 10 6 13 13 9 14 15 16 12 12 10 5 14 14 24 24 15 17 21 27 28 30 27
34 34 23 21 21 18 11 13 22 22 20 13 13 13 13 14 14 10 8 11 12 9 9 14 10 7 9 12 12 13 13 13 13 13 12 15 12 17 23 24 18 25 31 26 23
33 30 27 19 21 8 14 21 27 22 24 20 19 17 17 11 15 12 11 8 11 10 8 10 10 17 21 19 22 22 19 21 14 18 13 21 22 24 20 14 20 28 27 22 21
31 30 19 19 15 14 23 29 21 30 26 22 18 22 21 14 10 11 12 13 16 15 7 11 9 12 10 7 12 13 14 20 22 21 26 20 22 23 21 21 26 26 20 18 20
28 23 24 19 7 22 26 27 33 32 27 23 21 21 19 19 16 14 12 10 13 18 18 18 20 22 21 27 23 19 24 23 22 20 30 32 34 30 28 24 25 22 19 20 21
25 25 21 22 25 27 32 34 34 33 29 26 24 22 17 14 14 20 19 20 18 21 22 22 28 26 28 29 29 31 33 32 30 35 34 39 38 40 31 30 25 20 18 21 22
24 24 26 27 29 33 33 35 33 32 30 31 24 16 14 21 19 24 20 23 27 24 23 26 29 26 31 29 29 34 31 29 32 33 38 38 37 28 26 20 16 16 16 21 23
24 28 28 31 33 36 38 33 36 34 31 26 25 22 21 18 21 24 28 29 27 28 29 28 25 21 32 24 24 23 25 26 28 28 30 33 33 27 21 18 18 17 19 20 24
Wind_Direction
328 331 334 334 331 329 328 326 321 318 316 317 317 318 318 317 313 305 301 307 298 281 276 281 281 289 288 284 275 286 257 268 281 288 292 291 285 278 278 275 273 269 262 266 262
328 330 331 334 335 336 334 329 324 322 323 322 321 320 316 314 306 300 308 299 296 293 267 277 302 305 312 306 288 280 265 274 285 285 289 288 279 277 278 276 272 268 262 267 274
340 335 337 338 337 338 340 339 335 333 328 324 321 317 315 312 304 307 295 301 304 297 275 286 299 299 299 299 301 284 270 287 289 288 293 290 290 282 276 271 272 271 266 262 255
355 348 342 339 336 337 338 339 339 337 332 328 324 319 315 310 265 292 297 304 298 285 282 299 300 300 304 304 306 287 287 289 295 297 291 289 287 286 283 282 286 270 257 254 247
352 349 344 339 337 335 335 339 340 338 335 331 326 323 317 299 290 292 299 303 302 306 318 313 307 308 308 304 303 298 300 301 308 302 297 295 289 289 287 292 287 277 265 255 255
352 351 350 345 339 337 336 338 339 338 338 335 333 327 315 289 306 314 315 321 328 326 321 320 309 304 302 300 296 309 308 318 322 315 316 305 289 296 301 303 288 277 270 263 251
348 350 349 347 346 343 342 341 342 339 342 341 335 333 332 318 351 345 338 333 331 330 332 328 323 322 320 320 322 323 320 326 340 314 308 303 299 296 305 300 289 284 270 270 258
342 346 348 347 348 346 343 342 341 339 341 340 339 334 18 35 346 346 342 342 339 333 333 332 330 321 327 339 340 319 318 322 317 316 310 307 300 311 310 308 294 297 296 278 255
340 343 345 346 346 346 344 343 341 338 337 342 340 345 56 350 352 344 345 347 343 341 345 348 347 340 341 356 345 275 317 314 314 315 318 305 299 312 314 307 300 292 288 282 288
337 339 342 344 345 345 346 342 340 338 331 335 337 15 345 347 347 342 346 348 349 349 341 355 344 358 345 336 317 307 311 309 310 319 307 305 304 316 318 308 303 298 288 283 273
335 337 339 341 345 346 346 346 341 334 328 328 310 189 335 346 344 338 344 346 350 358 332 326 324 291 303 302 295 299 302 304 311 307 309 307 311 321 326 325 327 330 309 302 292
336 337 340 340 345 347 349 347 341 333 322 301 221 207 330 343 341 333 339 349 349 291 317 311 298 263 303 296 293 298 297 298 302 305 306 310 311 307 328 345 349 348 335 317 296
336 336 339 340 344 347 347 345 340 339 327 245 217 277 326 340 330 328 329 329 332 295 299 289 278 282 306 294 297 296 295 300 302 307 303 298 305 288 312 335 351 354 346 338 324
334 336 337 339 342 343 344 344 341 341 328 207 232 290 309 334 304 319 314 322 324 302 299 281 254 282 286 288 294 288 296 297 301 305 298 303 293 283 280 305 339 351 353 351 344
331 333 336 339 339 341 341 343 337 340 287 251 288 305 308 323 316 314 313 310 310 283 282 268 282 288 281 289 279 283 293 297 292 289 296 288 277 281 285 280 327 343 346 351 349
327 331 335 336 337 338 339 339 335 345 49 307 294 304 316 314 314 290 310 308 310 297 272 277 272 278 277 274 286 289 302 301 289 280 278 284 277 284 301 292 312 332 339 338 334
325 329 332 334 334 336 338 338 333 352 323 296 309 312 308 302 293 289 300 286 283 300 297 293 276 256 283 303 283 294 307 310 285 259 267 291 272 279 289 283 312 327 336 335 330
322 325 330 331 331 334 337 337 297 310 311 308 306 306 297 280 278 288 305 289 282 254 284 299 268 220 249 288 287 287 281 272 292 292 304 303 286 284 317 297 316 319 323 327 320
317 321 326 328 330 334 336 336 307 317 312 314 315 302 254 271 270 306 285 274 242 235 251 285 257 264 282 280 275 309 263 274 283 280 273 272 279 286 295 284 303 311 319 323 325
316 320 330 329 329 333 333 329 319 322 318 315 295 275 267 271 292 297 298 249 247 249 282 263 284 286 256 283 276 246 276 280 250 275 284 292 301 293 307 312 310 313 318 318 323
314 317 326 322 325 322 332 330 329 331 328 313 294 272 280 286 269 272 259 269 260 264 280 292 258 262 282 282 277 261 254 251 263 263 289 294 282 297 319 310 307 314 316 321 324
310 314 320 316 320 292 331 338 328 330 326 309 304 287 270 265 282 266 255 244 265 255 276 282 269 269 277 274 270 261 256 251 261 271 252 275 275 294 299 284 320 316 312 310 318
308 311 316 320 312 310 324 331 331 331 324 306 299 294 287 269 272 251 264 265 273 270 276 269 263 287 298 252 269 256 256 261 257 264 264 276 281 293 290 292 304 312 317 314 318
305 305 313 317 295 318 318 322 325 328 319 311 300 296 283 274 261 267 258 279 280 268 274 280 263 258 268 277 287 281 274 270 254 254 266 267 284 292 291 299 303 303 307 309 315
297 298 299 303 308 309 315 317 319 318 318 313 303 301 286 271 278 267 270 279 274 274 274 264 266 272 275 280 274 275 277 272 254 261 260 275 286 286 289 295 294 295 304 308 314
289 283 290 288 303 301 305 317 318 315 313 310 301 291 274 269 267 277 284 284 283 277 258 263 270 278 279 281 278 274 273 271 266 268 270 271 278 301 296 293 285 292 300 305 310
282 283 287 286 298 303 302 309 313 310 311 306 298 291 281 280 269 266 265 270 263 267 268 271 270 278 280 288 293 279 275 272 278 271 273 269 276 290 291 285 286 290 292 298 305